Location: ?????????
(54.7630°N, 39.4991°E)
Time: 19:38:25
(UTC+00:00)

Cosmos 921 Rocket - Pass Details

Date: 14 April 2026
Orbit: 563 x 620 km, 75.8° (Epoch: 19 May)

Event Time Altitude Azimuth Distance (km) Brightness Sun altitude
Rises 20:51:35 0° 331° (NNW) 2,909 7.6 -25.3°
Reaches altitude 10° 20:53:58 10° 323° (NW) 1,994 6.4 -25.3°
Enters shadow 20:57:30 34° 274° (W) 1,015 4.2 -25.4°
